| time (UTC) | temp C | wind direction | speed KPH | gust KPH | rain 1hr cm | rain 24hr cm | rain mn cm | humidity % | barometer mb |
| 20260508073116 | 11 | 281 | 0.0 | 1.6 | 0.00 | 0.00 | 0.00 | 90 | 1018.8 |
| 20260508072116 | 11 | 0.0 | 1.6 | 0.00 | 0.00 | 0.00 | 91 | 1018.7 | |
| 20260508071116 | 11 | 279 | 0.0 | 3.2 | 0.00 | 0.00 | 0.00 | 91 | 1018.8 |
| 20260508070116 | 11 | 244 | 1.6 | 4.8 | 0.00 | 0.00 | 0.00 | 91 | 1018.7 |
| 20260508065116 | 11 | 254 | 3.2 | 4.8 | 0.00 | 0.00 | 0.00 | 91 | 1018.6 |
| 20260508064116 | 11 | 264 | 1.6 | 1.6 | 0.00 | 0.00 | 0.00 | 90 | 1018.6 |
| 20260508063116 | 11 | 265 | 1.6 | 3.2 | 0.00 | 0.00 | 0.00 | 90 | 1018.6 |
| 20260508062116 | 11 | 243 | 1.6 | 3.2 | 0.00 | 0.00 | 0.00 | 90 | 1018.7 |
| 20260508061136 | 11 | 251 | 4.8 | 6.4 | 0.00 | 0.00 | 0.00 | 90 | 1018.7 |
| 20260508060136 | 11 | 270 | 3.2 | 6.4 | 0.00 | 0.00 | 0.00 | 90 | 1018.6 |
| 20260508055136 | 11 | 275 | 3.2 | 6.4 | 0.00 | 0.00 | 0.00 | 89 | 1018.7 |
| 20260508054116 | 11 | 268 | 1.6 | 3.2 | 0.00 | 0.00 | 0.00 | 89 | 1018.6 |
| 20260508053116 | 12 | 269 | 1.6 | 3.2 | 0.00 | 0.00 | 0.00 | 88 | 1018.6 |
| 20260508052116 | 12 | 269 | 1.6 | 3.2 | 0.00 | 0.00 | 0.00 | 88 | 1018.6 |
| 20260508051116 | 12 | 242 | 0.0 | 1.6 | 0.00 | 0.00 | 0.00 | 88 | 1018.4 |
| 20260508050116 | 12 | 247 | 1.6 | 3.2 | 0.00 | 0.00 | 0.00 | 87 | 1018.5 |
| 20260508045116 | 12 | 262 | 1.6 | 3.2 | 0.00 | 0.00 | 0.00 | 87 | 1018.5 |
| 20260508044116 | 12 | 228 | 1.6 | 3.2 | 0.00 | 0.00 | 0.00 | 87 | 1018.4 |
| 20260508043116 | 12 | 252 | 4.8 | 4.8 | 0.00 | 0.00 | 0.00 | 86 | 1018.4 |
| 20260508042116 | 13 | 173 | 0.0 | 1.6 | 0.00 | 0.00 | 0.00 | 85 | 1018.3 |
| 20260508041116 | 13 | 166 | 1.6 | 3.2 | 0.00 | 0.00 | 0.00 | 84 | 1018.0 |
| 20260508040116 | 13 | 198 | 1.6 | 3.2 | 0.00 | 0.00 | 0.00 | 84 | 1018.0 |
| 20260508035116 | 13 | 192 | 1.6 | 3.2 | 0.00 | 0.00 | 0.00 | 83 | 1017.9 |
| 20260508034136 | 13 | 116 | 1.6 | 3.2 | 0.00 | 0.00 | 0.00 | 82 | 1017.9 |
| 20260508033116 | 14 | 162 | 4.8 | 8.0 | 0.00 | 0.00 | 0.00 | 80 | 1017.8 |
| 20260508032136 | 15 | 156 | 3.2 | 6.4 | 0.00 | 0.00 | 0.00 | 79 | 1017.5 |
| 20260508031116 | 15 | 196 | 4.8 | 9.7 | 0.00 | 0.00 | 0.00 | 77 | 1017.4 |
| 20260508030115 | 16 | 154 | 4.8 | 9.7 | 0.00 | 0.00 | 0.00 | 74 | 1017.3 |
| 20260508025115 | 17 | 219 | 1.6 | 6.4 | 0.00 | 0.00 | 0.00 | 73 | 1017.1 |
| 20260508024116 | 17 | 162 | 4.8 | 9.7 | 0.00 | 0.00 | 0.00 | 71 | 1017.1 |
| 20260508023115 | 17 | 163 | 3.2 | 4.8 | 0.00 | 0.00 | 0.00 | 71 | 1017.0 |
| 20260508022135 | 18 | 129 | 4.8 | 11.3 | 0.00 | 0.00 | 0.00 | 70 | 1017.0 |
| 20260508021136 | 18 | 110 | 4.8 | 11.3 | 0.00 | 0.00 | 0.00 | 68 | 1017.0 |
| 20260508020116 | 18 | 135 | 4.8 | 9.7 | 0.00 | 0.00 | 0.00 | 68 | 1017.0 |
| 20260508015216 | 19 | 153 | 6.4 | 12.9 | 0.00 | 0.00 | 0.00 | 68 | 1017.0 |
| 20260508014115 | 19 | 160 | 4.8 | 8.0 | 0.00 | 0.00 | 0.00 | 68 | 1016.9 |
| 20260508013116 | 19 | 148 | 4.8 | 9.7 | 0.00 | 0.00 | 0.00 | 67 | 1016.8 |
| 20260508012116 | 19 | 144 | 6.4 | 12.9 | 0.00 | 0.00 | 0.00 | 66 | 1016.7 |
| 20260508011115 | 20 | 139 | 4.8 | 12.9 | 0.00 | 0.00 | 0.00 | 64 | 1016.7 |
| 20260508010115 | 20 | 152 | 8.0 | 12.9 | 0.00 | 0.00 | 0.00 | 63 | 1016.7 |
| 20260508005116 | 20 | 170 | 1.6 | 9.7 | 0.00 | 0.00 | 0.00 | 62 | 1016.8 |
| 20260508004116 | 20 | 132 | 3.2 | 4.8 | 0.00 | 0.00 | 0.00 | 62 | 1016.8 |
| 20260508003155 | 20 | 166 | 6.4 | 9.7 | 0.00 | 0.00 | 0.00 | 60 | 1016.8 |
| 20260508002135 | 20 | 109 | 3.2 | 8.0 | 0.00 | 0.00 | 0.00 | 61 | 1017.0 |
| 20260508001116 | 20 | 143 | 4.8 | 9.7 | 0.00 | 0.00 | 0.00 | 61 | 1016.9 |
| 20260508000116 | 20 | 113 | 4.8 | 9.7 | 0.00 | 0.00 | 0.00 | 62 | 1016.9 |
| 20260507235115 | 21 | 144 | 4.8 | 12.9 | 0.00 | 0.00 | 0.00 | 61 | 1017.0 |
| 20260507234115 | 21 | 143 | 4.8 | 14.5 | 0.00 | 0.00 | 0.00 | 59 | 1016.8 |
| 20260507233116 | 22 | 135 | 4.8 | 11.3 | 0.00 | 0.00 | 0.00 | 59 | 1016.8 |
| 20260507232115 | 22 | 105 | 6.4 | 9.7 | 0.00 | 0.00 | 0.00 | 59 | 1017.0 |
| 20260507231115 | 22 | 110 | 9.7 | 12.9 | 0.00 | 0.00 | 0.00 | 61 | 1017.1 |
| 20260507230115 | 21 | 101 | 8.0 | 11.3 | 0.00 | 0.00 | 0.00 | 60 | 1017.2 |
| 20260507225115 | 22 | 155 | 6.4 | 9.7 | 0.00 | 0.00 | 0.00 | 60 | 1017.3 |
| 20260507224116 | 22 | 115 | 9.7 | 14.5 | 0.00 | 0.00 | 0.00 | 60 | 1017.3 |
| 20260507223115 | 22 | 113 | 4.8 | 9.7 | 0.00 | 0.00 | 0.00 | 61 | 1017.4 |
| 20260507222116 | 21 | 131 | 6.4 | 11.3 | 0.00 | 0.00 | 0.00 | 62 | 1017.5 |
| 20260507221115 | 21 | 143 | 4.8 | 11.3 | 0.00 | 0.00 | 0.00 | 62 | 1017.5 |
| 20260507220115 | 21 | 81 | 8.0 | 12.9 | 0.00 | 0.00 | 0.00 | 62 | 1017.5 |
| 20260507215115 | 21 | 78 | 8.0 | 12.9 | 0.00 | 0.00 | 0.00 | 63 | 1017.6 |
| 20260507214116 | 21 | 159 | 8.0 | 12.9 | 0.00 | 0.00 | 0.00 | 64 | 1017.5 |
| 20260507213115 | 21 | 129 | 8.0 | 12.9 | 0.00 | 0.00 | 0.00 | 64 | 1017.7 |
| 20260507212115 | 21 | 149 | 6.4 | 11.3 | 0.00 | 0.00 | 0.00 | 64 | 1017.9 |
| 20260507211116 | 21 | 144 | 4.8 | 9.7 | 0.00 | 0.00 | 0.00 | 63 | 1017.9 |
| 20260507210115 | 21 | 214 | 8.0 | 11.3 | 0.00 | 0.00 | 0.00 | 64 | 1018.0 |
| 20260507205115 | 21 | 211 | 6.4 | 9.7 | 0.00 | 0.00 | 0.00 | 66 | 1018.0 |
| 20260507204136 | 20 | 192 | 4.8 | 9.7 | 0.00 | 0.00 | 0.00 | 66 | 1018.0 |
| 20260507203115 | 20 | 187 | 4.8 | 8.0 | 0.00 | 0.00 | 0.00 | 65 | 1018.1 |
| 20260507202115 | 20 | 154 | 3.2 | 8.0 | 0.00 | 0.00 | 0.00 | 67 | 1018.2 |
| 20260507201115 | 20 | 104 | 4.8 | 11.3 | 0.00 | 0.00 | 0.00 | 69 | 1018.1 |
| 20260507200115 | 18 | 149 | 3.2 | 6.4 | 0.00 | 0.00 | 0.00 | 70 | 1018.4 |
| 20260507195115 | 18 | 212 | 1.6 | 3.2 | 0.00 | 0.00 | 0.00 | 72 | 1018.5 |
| 20260507194115 | 17 | 209 | 4.8 | 8.0 | 0.00 | 0.00 | 0.00 | 74 | 1018.8 |
| 20260507193115 | 17 | 218 | 3.2 | 8.0 | 0.00 | 0.00 | 0.00 | 74 | 1018.9 |
| 20260507192115 | 17 | 220 | 6.4 | 11.3 | 0.00 | 0.00 | 0.00 | 76 | 1019.0 |
| 20260507191136 | 17 | 140 | 4.8 | 8.0 | 0.00 | 0.00 | 0.00 | 77 | 1019.1 |
| 20260507190137 | 17 | 152 | 4.8 | 11.3 | 0.00 | 0.00 | 0.00 | 79 | 1019.1 |
| 20260507185137 | 16 | 198 | 8.0 | 12.9 | 0.00 | 0.00 | 0.00 | 80 | 1019.2 |
| 20260507184117 | 16 | 207 | 4.8 | 9.7 | 0.00 | 0.00 | 0.00 | 80 | 1019.4 |
| 20260507183117 | 16 | 207 | 4.8 | 9.7 | 0.00 | 0.00 | 0.00 | 81 | 1019.2 |
| 20260507182118 | 16 | 123 | 6.4 | 9.7 | 0.00 | 0.00 | 0.00 | 83 | 1019.4 |
| 20260507181117 | 15 | 237 | 6.4 | 11.3 | 0.00 | 0.00 | 0.00 | 84 | 1019.4 |
| 20260507180117 | 15 | 239 | 9.7 | 14.5 | 0.00 | 0.00 | 0.00 | 84 | 1019.3 |
| 20260507175118 | 15 | 87 | 1.6 | 16.1 | 0.00 | 0.00 | 0.00 | 85 | 1019.4 |
| 20260507174117 | 15 | 198 | 6.4 | 9.7 | 0.00 | 0.00 | 0.00 | 84 | 1019.3 |
| 20260507173138 | 15 | 174 | 4.8 | 6.4 | 0.00 | 0.00 | 0.00 | 88 | 1019.3 |
| 20260507172118 | 15 | 205 | 6.4 | 9.7 | 0.00 | 0.00 | 0.00 | 90 | 1019.2 |
| 20260507171118 | 14 | 175 | 3.2 | 8.0 | 0.00 | 0.00 | 0.00 | 92 | 1019.3 |
| 20260507170157 | 13 | 212 | 4.8 | 8.0 | 0.00 | 0.00 | 0.00 | 93 | 1019.3 |
| 20260507165118 | 13 | 277 | 1.6 | 3.2 | 0.00 | 0.00 | 0.00 | 94 | 1019.3 |
| 20260507164118 | 12 | 47 | 0.0 | 3.2 | 0.00 | 0.00 | 0.00 | 93 | 1019.5 |
| 20260507163117 | 12 | 266 | 3.2 | 4.8 | 0.00 | 0.00 | 0.00 | 93 | 1019.6 |
| 20260507162117 | 12 | 250 | 3.2 | 4.8 | 0.00 | 0.00 | 0.00 | 93 | 1019.6 |
| 20260507161115 | 12 | 259 | 3.2 | 4.8 | 0.00 | 0.00 | 0.00 | 93 | 1019.5 |
| 20260507160115 | 12 | 344 | 1.6 | 1.6 | 0.00 | 0.00 | 0.00 | 93 | 1019.6 |
| 20260507155135 | 12 | 39 | 0.0 | 1.6 | 0.00 | 0.00 | 0.00 | 93 | 1019.6 |
| 20260507154135 | 12 | 56 | 1.6 | 3.2 | 0.00 | 0.00 | 0.00 | 93 | 1019.6 |
| 20260507153135 | 11 | 342 | 0.0 | 1.6 | 0.00 | 0.00 | 0.00 | 93 | 1019.5 |
| 20260507152115 | 11 | 42 | 0.0 | 1.6 | 0.00 | 0.00 | 0.00 | 93 | 1019.6 |
| 20260507151115 | 11 | 15 | 3.2 | 3.2 | 0.00 | 0.00 | 0.00 | 93 | 1019.7 |
| 20260507150115 | 11 | 41 | 3.2 | 4.8 | 0.00 | 0.00 | 0.00 | 93 | 1019.6 |
| 20260507145115 | 11 | 39 | 3.2 | 4.8 | 0.00 | 0.00 | 0.00 | 93 | 1019.6 |
| 20260507144135 | 11 | 0.0 | 0.0 | 0.00 | 0.00 | 0.00 | 93 | 1019.6 | |
| 20260507143115 | 11 | 0.0 | 0.0 | 0.00 | 0.00 | 0.00 | 93 | 1019.5 | |
| 20260507142115 | 11 | 53 | 0.0 | 1.6 | 0.00 | 0.00 | 0.00 | 93 | 1019.5 |
| 20260507141115 | 11 | 31 | 1.6 | 3.2 | 0.00 | 0.00 | 0.00 | 93 | 1019.6 |
| 20260507140115 | 11 | 25 | 1.6 | 3.2 | 0.00 | 0.00 | 0.00 | 93 | 1019.4 |
| 20260507135115 | 11 | 20 | 1.6 | 4.8 | 0.00 | 0.00 | 0.00 | 93 | 1019.3 |
| 20260507134115 | 11 | 35 | 1.6 | 3.2 | 0.00 | 0.00 | 0.00 | 93 | 1019.3 |
| 20260507133115 | 11 | 38 | 0.0 | 1.6 | 0.00 | 0.00 | 0.00 | 93 | 1019.3 |
| 20260507132115 | 11 | 38 | 0.0 | 1.6 | 0.00 | 0.00 | 0.00 | 93 | 1019.2 |
| 20260507131115 | 11 | 0.0 | 1.6 | 0.00 | 0.00 | 0.00 | 93 | 1019.1 | |
| 20260507130135 | 11 | 38 | 1.6 | 3.2 | 0.00 | 0.00 | 0.00 | 93 | 1019.1 |
| 20260507125115 | 11 | 52 | 1.6 | 3.2 | 0.00 | 0.00 | 0.00 | 92 | 1018.9 |
| 20260507124115 | 11 | 69 | 1.6 | 4.8 | 0.00 | 0.00 | 0.00 | 92 | 1019.0 |
| 20260507123135 | 11 | 76 | 1.6 | 3.2 | 0.00 | 0.00 | 0.00 | 92 | 1019.1 |
| 20260507122115 | 11 | 0.0 | 0.0 | 0.00 | 0.00 | 0.00 | 92 | 1019.2 | |
| 20260507121115 | 11 | 38 | 1.6 | 3.2 | 0.00 | 0.00 | 0.00 | 92 | 1019.2 |
| 20260507120114 | 11 | 38 | 1.6 | 3.2 | 0.00 | 0.00 | 0.00 | 92 | 1019.2 |
| 20260507115134 | 11 | 5 | 1.6 | 3.2 | 0.00 | 0.00 | 0.00 | 92 | 1019.0 |
| 20260507114135 | 11 | 21 | 0.0 | 1.6 | 0.00 | 0.00 | 0.00 | 92 | 1019.1 |
| 20260507113115 | 11 | 0.0 | 1.6 | 0.00 | 0.00 | 0.00 | 92 | 1019.2 | |
| 20260507112115 | 11 | 319 | 1.6 | 3.2 | 0.00 | 0.00 | 0.00 | 92 | 1019.1 |
| 20260507111155 | 11 | 6 | 3.2 | 4.8 | 0.00 | 0.00 | 0.00 | 92 | 1019.3 |
| 20260507110115 | 11 | 352 | 1.6 | 3.2 | 0.00 | 0.00 | 0.00 | 92 | 1019.3 |
| 20260507105115 | 11 | 0.0 | 0.0 | 0.00 | 0.00 | 0.00 | 91 | 1019.3 | |
| 20260507104115 | 11 | 0.0 | 0.0 | 0.00 | 0.00 | 0.00 | 91 | 1019.4 | |
| 20260507103114 | 11 | 0.0 | 0.0 | 0.00 | 0.00 | 0.00 | 91 | 1019.4 | |
| 20260507102115 | 11 | 0.0 | 0.0 | 0.00 | 0.00 | 0.00 | 91 | 1019.2 | |
| 20260507101114 | 11 | 267 | 1.6 | 1.6 | 0.00 | 0.00 | 0.00 | 91 | 1019.3 |
| 20260507100114 | 11 | 267 | 1.6 | 1.6 | 0.00 | 0.00 | 0.00 | 91 | 1019.3 |
| 20260507095137 | 11 | 266 | 0.0 | 1.6 | 0.00 | 0.00 | 0.00 | 90 | 1019.3 |
| 20260507094117 | 11 | 269 | 1.6 | 1.6 | 0.00 | 0.00 | 0.00 | 90 | 1019.4 |
| 20260507093117 | 11 | 269 | 1.6 | 1.6 | 0.00 | 0.00 | 0.00 | 90 | 1019.4 |
| 20260507092117 | 11 | 263 | 1.6 | 3.2 | 0.00 | 0.00 | 0.00 | 90 | 1019.4 |
| 20260507091117 | 11 | 260 | 0.0 | 3.2 | 0.00 | 0.00 | 0.00 | 90 | 1019.6 |
| 20260507090117 | 12 | 260 | 1.6 | 3.2 | 0.00 | 0.00 | 0.00 | 90 | 1019.7 |
| 20260507085117 | 12 | 278 | 3.2 | 3.2 | 0.00 | 0.00 | 0.00 | 90 | 1019.6 |
| 20260507084117 | 12 | 0.0 | 0.0 | 0.00 | 0.00 | 0.00 | 90 | 1019.7 | |
| 20260507083117 | 12 | 298 | 0.0 | 3.2 | 0.00 | 0.00 | 0.00 | 90 | 1019.7 |
| 20260507082117 | 12 | 288 | 1.6 | 4.8 | 0.00 | 0.00 | 0.00 | 90 | 1019.8 |
| 20260507081117 | 12 | 286 | 3.2 | 4.8 | 0.00 | 0.00 | 0.00 | 90 | 1019.8 |
| 20260507080117 | 12 | 281 | 1.6 | 3.2 | 0.00 | 0.00 | 0.00 | 90 | 1019.9 |
| 20260507075117 | 12 | 264 | 1.6 | 3.2 | 0.00 | 0.00 | 0.00 | 90 | 1020.0 |
| 20260507074117 | 12 | 0.0 | 0.0 | 0.00 | 0.00 | 0.00 | 90 | 1020.1 |